NOZ58R ENBR-LIRF

Flight info

Callsign NOZ58R
Flight time N/A
Altitude 35000
Route TUXIL DCT ZOL DCT ATTUS DCT NOMKA DCT EXITI DCT BERAS M736 LIZUM N503 LIKDA DCT BAKOR DCT GAVRA DCT RITEB
Aircraft B738/M-SDE2E3FGHIRWXY/LB1

Departure

Time N/A
Airport Bergen Airport, Flesland (ENBR)

Arrival

Time 2026-05-03 21:12
Airport Rome–Fiumicino Leonardo da Vinci International Airport (LIRF)
Time Latitude Longitude Altitude Speed Heading
2026-05-03 20:15 46.95549 11.74773 35077 ft 457 kts 185°
2026-05-03 20:15 46.89231 11.74428 35098 ft 457 kts 185°
2026-05-03 20:16 46.82860 11.74081 35108 ft 459 kts 185°
2026-05-03 20:16 46.76475 11.73737 35106 ft 460 kts 185°
2026-05-03 20:17 46.70072 11.73392 35107 ft 461 kts 185°
2026-05-03 20:17 46.63704 11.73050 35130 ft 461 kts 185°
2026-05-03 20:18 46.57279 11.72887 35140 ft 463 kts 182°
2026-05-03 20:18 46.50844 11.73140 35157 ft 463 kts 181°
2026-05-03 20:19 46.44389 11.73446 35171 ft 464 kts 181°
2026-05-03 20:19 46.37978 11.73709 35205 ft 464 kts 181°
2026-05-03 20:20 46.31512 11.73945 35213 ft 465 kts 181°
2026-05-03 20:20 46.25052 11.74171 35240 ft 465 kts 181°
2026-05-03 20:21 46.18582 11.74397 35226 ft 465 kts 181°
2026-05-03 20:21 46.12103 11.74624 35230 ft 466 kts 181°
2026-05-03 20:22 46.05661 11.74849 35205 ft 466 kts 181°
2026-05-03 20:22 45.99181 11.75074 35185 ft 466 kts 181°
2026-05-03 20:23 45.92692 11.75301 35172 ft 466 kts 181°
2026-05-03 20:23 45.86196 11.75528 35138 ft 468 kts 181°
2026-05-03 20:24 45.79735 11.75751 35136 ft 467 kts 181°
2026-05-03 20:24 45.73240 11.75974 35128 ft 467 kts 181°
2026-05-03 20:25 45.66759 11.76199 35129 ft 466 kts 182°
2026-05-03 20:25 45.60283 11.76422 35114 ft 465 kts 181°
2026-05-03 20:26 45.53853 11.76642 35103 ft 465 kts 182°
2026-05-03 20:26 45.47378 11.76862 35104 ft 465 kts 182°
2026-05-03 20:27 45.40903 11.77083 35106 ft 465 kts 182°
2026-05-03 20:27 45.34422 11.77303 35114 ft 466 kts 182°
2026-05-03 20:28 45.27976 11.77523 35101 ft 467 kts 182°
2026-05-03 20:28 45.21480 11.77744 35081 ft 468 kts 182°
2026-05-03 20:29 45.14953 11.77965 35079 ft 470 kts 182°
2026-05-03 20:29 45.08408 11.78183 35087 ft 471 kts 182°
2026-05-03 20:30 45.01888 11.78404 35084 ft 472 kts 182°
2026-05-03 20:30 44.95303 11.78625 35085 ft 474 kts 182°
2026-05-03 20:31 44.88703 11.78847 35079 ft 475 kts 182°
2026-05-03 20:31 44.82082 11.79070 35068 ft 476 kts 182°
2026-05-03 20:32 44.75492 11.79290 35077 ft 477 kts 182°
2026-05-03 20:32 44.68845 11.79511 35071 ft 479 kts 182°
2026-05-03 20:33 44.62181 11.79732 35078 ft 479 kts 182°
2026-05-03 20:33 44.55500 11.79953 35083 ft 481 kts 182°
2026-05-03 20:34 44.48847 11.80173 35080 ft 482 kts 182°
2026-05-03 20:34 44.42144 11.80395 35097 ft 483 kts 182°
2026-05-03 20:35 44.35429 11.80613 35095 ft 483 kts 182°
2026-05-03 20:35 44.28692 11.80836 35079 ft 484 kts 183°
2026-05-03 20:36 44.21987 11.81059 35103 ft 485 kts 182°
2026-05-03 20:36 44.15227 11.81279 35102 ft 487 kts 182°
2026-05-03 20:37 44.08453 11.81496 35096 ft 487 kts 183°
2026-05-03 20:37 44.01675 11.81719 35110 ft 488 kts 182°
2026-05-03 20:38 43.94898 11.81941 35101 ft 487 kts 182°
2026-05-03 20:38 43.88168 11.82159 35118 ft 486 kts 183°
2026-05-03 20:39 43.81403 11.82377 35115 ft 487 kts 183°
2026-05-03 20:39 43.74671 11.83238 35105 ft 482 kts 171°
2026-05-03 20:39 43.71453 11.84272 35084 ft 468 kts 169°
2026-05-03 20:40 43.68370 11.85314 34877 ft 460 kts 169°
2026-05-03 20:40 43.65225 11.86376 34004 ft 469 kts 169°
2026-05-03 20:40 43.62012 11.87442 33002 ft 480 kts 170°
2026-05-03 20:40 43.58732 11.88511 32092 ft 488 kts 169°
2026-05-03 20:41 43.55413 11.89578 31336 ft 490 kts 169°
2026-05-03 20:41 43.52097 11.90641 30690 ft 488 kts 170°
2026-05-03 20:41 43.48794 11.91651 30112 ft 485 kts 169°
2026-05-03 20:41 43.45525 11.92684 29630 ft 479 kts 169°
2026-05-03 20:42 43.42309 11.93716 29170 ft 472 kts 169°
2026-05-03 20:42 43.39171 11.94723 28669 ft 466 kts 169°
2026-05-03 20:42 43.36026 11.95726 28092 ft 462 kts 169°
2026-05-03 20:42 43.32902 11.96718 27500 ft 459 kts 169°
2026-05-03 20:43 43.29811 11.97695 26965 ft 455 kts 168°
2026-05-03 20:43 43.26742 11.98663 26450 ft 450 kts 168°
2026-05-03 20:43 43.23756 11.99603 25949 ft 445 kts 168°
2026-05-03 20:43 43.20755 12.00547 25436 ft 441 kts 168°
2026-05-03 20:44 43.17848 12.01461 24909 ft 437 kts 168°
2026-05-03 20:44 43.14887 12.02341 24352 ft 434 kts 169°
2026-05-03 20:44 43.11991 12.03228 23832 ft 430 kts 168°
2026-05-03 20:44 43.09092 12.04156 23342 ft 425 kts 167°
2026-05-03 20:45 43.06229 12.05074 22863 ft 421 kts 167°
2026-05-03 20:45 43.03393 12.05976 22350 ft 417 kts 168°
2026-05-03 20:45 43.00573 12.06866 21828 ft 414 kts 168°
2026-05-03 20:45 42.97777 12.07743 21303 ft 411 kts 168°
2026-05-03 20:46 42.95005 12.08607 20804 ft 407 kts 168°
2026-05-03 20:46 42.92252 12.09464 20319 ft 403 kts 168°
2026-05-03 20:46 42.89527 12.10311 19815 ft 400 kts 168°
2026-05-03 20:46 42.86859 12.11142 19335 ft 397 kts 168°
2026-05-03 20:47 42.84183 12.11974 18855 ft 393 kts 167°
2026-05-03 20:47 42.81528 12.12797 18415 ft 388 kts 167°
2026-05-03 20:47 42.78928 12.13604 18210 ft 378 kts 167°
2026-05-03 20:47 42.76409 12.14385 18123 ft 365 kts 167°
2026-05-03 20:48 42.73976 12.15140 18036 ft 352 kts 167°
2026-05-03 20:48 42.71627 12.15867 17954 ft 340 kts 167°
2026-05-03 20:48 42.69386 12.16727 17804 ft 331 kts 155°
2026-05-03 20:48 42.67391 12.18239 17572 ft 326 kts 149°
2026-05-03 20:49 42.65481 12.19807 17212 ft 326 kts 149°
2026-05-03 20:49 42.63546 12.21397 16841 ft 325 kts 149°
2026-05-03 20:49 42.61612 12.22971 16494 ft 324 kts 149°
2026-05-03 20:49 42.59678 12.24531 16158 ft 322 kts 149°
2026-05-03 20:50 42.57757 12.26068 15817 ft 320 kts 149°
2026-05-03 20:50 42.55838 12.27598 15479 ft 319 kts 149°
2026-05-03 20:50 42.53929 12.29118 15148 ft 317 kts 149°
2026-05-03 20:50 42.52032 12.30627 14811 ft 316 kts 149°
2026-05-03 20:51 42.50162 12.32109 14481 ft 315 kts 149°
2026-05-03 20:51 42.48278 12.33602 14163 ft 313 kts 149°
2026-05-03 20:51 42.46404 12.35089 13814 ft 312 kts 149°
2026-05-03 20:51 42.44539 12.36573 13505 ft 310 kts 149°
2026-05-03 20:52 42.42683 12.38051 13185 ft 309 kts 149°
2026-05-03 20:52 42.40836 12.39520 12907 ft 306 kts 149°
2026-05-03 20:52 42.39030 12.40953 12824 ft 296 kts 149°
2026-05-03 20:52 42.37276 12.42346 12708 ft 288 kts 149°
2026-05-03 20:53 42.35534 12.43619 12533 ft 282 kts 158°
2026-05-03 20:53 42.33680 12.44443 12273 ft 280 kts 164°
2026-05-03 20:53 42.31829 12.45151 11970 ft 280 kts 164°
2026-05-03 20:53 42.29967 12.45888 11674 ft 279 kts 163°
2026-05-03 20:54 42.28110 12.46649 11400 ft 278 kts 163°
2026-05-03 20:54 42.24397 12.47892 10870 ft 274 kts 184°
2026-05-03 20:54 42.22613 12.47163 10613 ft 269 kts 212°
2026-05-03 20:55 42.21270 12.45425 10307 ft 267 kts 237°
2026-05-03 20:55 42.20511 12.43161 10039 ft 265 kts 253°
2026-05-03 20:55 42.19974 12.40789 9764 ft 264 kts 253°
2026-05-03 20:55 42.19466 12.38419 9483 ft 263 kts 260°
2026-05-03 20:56 42.19552 12.36027 9197 ft 260 kts 290°
2026-05-03 20:56 42.20493 12.34021 9072 ft 251 kts 317°
2026-05-03 20:56 42.21923 12.32747 8971 ft 248 kts 339°
2026-05-03 20:56 42.23552 12.31992 8876 ft 247 kts 344°
2026-05-03 20:57 42.25209 12.31321 8770 ft 251 kts 344°
2026-05-03 20:57 42.26891 12.30645 8664 ft 253 kts 344°
2026-05-03 20:57 42.28577 12.29959 8548 ft 254 kts 343°
2026-05-03 20:57 42.30245 12.29267 8442 ft 254 kts 343°
2026-05-03 20:58 42.31935 12.28560 8336 ft 254 kts 343°
2026-05-03 20:58 42.33625 12.27848 8226 ft 254 kts 343°
2026-05-03 20:58 42.35314 12.27137 8120 ft 255 kts 343°
2026-05-03 20:58 42.36999 12.26426 8006 ft 252 kts 343°
2026-05-03 20:59 42.38652 12.25727 7887 ft 247 kts 343°
2026-05-03 20:59 42.40222 12.24856 7753 ft 244 kts 323°
2026-05-03 20:59 42.41262 12.23087 7676 ft 243 kts 291°
2026-05-03 20:59 42.41511 12.20835 7600 ft 246 kts 264°
2026-05-03 21:00 42.41137 12.18593 7516 ft 251 kts 253°
2026-05-03 21:00 42.40776 12.17066 7441 ft 253 kts 252°
2026-05-03 21:00 42.40047 12.14072 7283 ft 254 kts 252°
2026-05-03 21:00 42.39296 12.11925 7135 ft 252 kts 229°
2026-05-03 21:01 42.37907 12.10606 7039 ft 242 kts 198°
2026-05-03 21:01 42.36275 12.10327 6944 ft 234 kts 174°
2026-05-03 21:01 42.34694 12.10796 6875 ft 232 kts 162°
2026-05-03 21:01 42.33150 12.11464 6770 ft 234 kts 161°
2026-05-03 21:02 42.31598 12.12147 6680 ft 236 kts 161°
2026-05-03 21:02 42.30046 12.12833 6585 ft 239 kts 161°
2026-05-03 21:02 42.28454 12.13523 6418 ft 243 kts 162°
2026-05-03 21:02 42.26851 12.14209 6252 ft 240 kts 162°
2026-05-03 21:03 42.25275 12.14877 6132 ft 234 kts 162°
2026-05-03 21:03 42.23731 12.15531 6030 ft 232 kts 162°
2026-05-03 21:03 42.22183 12.16185 5883 ft 234 kts 162°
2026-05-03 21:03 42.20618 12.16846 5684 ft 238 kts 162°
2026-05-03 21:04 42.19031 12.17518 5509 ft 239 kts 162°
2026-05-03 21:04 42.17480 12.18174 5304 ft 235 kts 162°
2026-05-03 21:04 42.15929 12.18829 5113 ft 232 kts 163°
2026-05-03 21:04 42.14365 12.19202 4902 ft 227 kts 185°
2026-05-03 21:05 42.12817 12.18926 4759 ft 223 kts 188°
2026-05-03 21:05 42.11275 12.18645 4581 ft 224 kts 187°
2026-05-03 21:05 42.09730 12.18374 4407 ft 224 kts 187°
2026-05-03 21:05 42.08197 12.18109 4233 ft 224 kts 187°
2026-05-03 21:06 42.06671 12.17848 4090 ft 223 kts 187°
2026-05-03 21:06 42.05134 12.17589 4037 ft 222 kts 187°
2026-05-03 21:06 42.03634 12.17336 4045 ft 211 kts 187°
2026-05-03 21:06 42.02210 12.17099 4021 ft 203 kts 187°
2026-05-03 21:07 42.00803 12.16866 3864 ft 207 kts 187°
2026-05-03 21:07 41.99369 12.16629 3615 ft 207 kts 187°
2026-05-03 21:07 41.97945 12.16393 3364 ft 204 kts 187°
2026-05-03 21:07 41.96550 12.16361 3109 ft 199 kts 167°
2026-05-03 21:08 41.95261 12.16952 2891 ft 197 kts 161°
2026-05-03 21:08 41.93941 12.17468 2626 ft 199 kts 164°
2026-05-03 21:08 41.92637 12.17995 2341 ft 197 kts 163°
2026-05-03 21:08 41.91374 12.18524 2066 ft 182 kts 163°
2026-05-03 21:09 41.90221 12.19008 1865 ft 164 kts 163°
2026-05-03 21:09 41.89154 12.19454 1648 ft 160 kts 163°
2026-05-03 21:09 41.88107 12.19891 1440 ft 157 kts 164°
2026-05-03 21:09 41.87074 12.20323 1248 ft 157 kts 164°
2026-05-03 21:10 41.86031 12.20760 1031 ft 157 kts 164°
2026-05-03 21:10 41.84995 12.21192 820 ft 156 kts 163°
2026-05-03 21:10 41.83963 12.21606 602 ft 157 kts 164°
2026-05-03 21:10 41.82936 12.22040 404 ft 156 kts 162°
2026-05-03 21:11 41.81919 12.22488 191 ft 156 kts 163°
2026-05-03 21:11 41.80883 12.22915 28 ft 151 kts 163°
2026-05-03 21:11 41.79981 12.23296 19 ft 115 kts 161°
2026-05-03 21:11 41.79413 12.23532 10 ft 55 kts 162°
2026-05-03 21:12 41.79210 12.23637 13 ft 13 kts 152°
2026-05-03 21:12 41.79134 12.23703 13 ft 13 kts 142°
2026-05-03 21:12 41.79069 12.23782 13 ft 12 kts 134°
2026-05-03 21:12 41.79011 12.23867 14 ft 12 kts 133°
2026-05-03 21:13 41.78960 12.23955 12 ft 12 kts 108°
2026-05-03 21:13 41.79009 12.24026 13 ft 12 kts 360°
2026-05-03 21:13 41.79089 12.23996 14 ft 12 kts 342°
2026-05-03 21:13 41.79166 12.23963 13 ft 12 kts 342°
2026-05-03 21:14 41.79242 12.23968 14 ft 12 kts 44°
2026-05-03 21:14 41.79286 12.24049 15 ft 10 kts 29°
2026-05-03 21:14 41.79355 12.24036 16 ft 10 kts 336°
2026-05-03 21:14 41.79419 12.24000 17 ft 10 kts 338°
2026-05-03 21:15 41.79480 12.23977 16 ft 8 kts
2026-05-03 21:15 41.79508 12.24039 15 ft 8 kts 78°
2026-05-03 21:15 41.79516 12.24079 15 ft 3 kts 65°
2026-05-03 21:15 41.79519 12.24086 15 ft 0 kts 59°